Weather History for Vinton, IA

Change the Weather History Date:

Monday, April 15, 2013

  Actual Average Record
Temperature  
Mean Temperature 41 °F -  
Max Temperature 47 °F 62 °F 93 °F (2003)
Min Temperature 34 °F 38 °F 22 °F (1950)
Degree Days  
Heating Degree Days 24    
Moisture  
Dew Point 33 °F    
Average Humidity 74    
Maximum Humidity 89    
Minimum Humidity 50    
Precipitation  
Precipitation 0.04 in - - ()
Sea Level Pressure  
Sea Level Pressure 29.85 in    
Wind  
Wind Speed 8 mph (West)    
Max Wind Speed 18 mph    
Max Gust Speed 24 mph    
Visibility 10 miles    
Events Rain    
Averages and records for this station are not official NWS values.
T = Trace of Precipitation, MM = Missing Value Source: NWS Daily Summary

Daily Weather History Graph

Daily Weather History Graph

Search for Another Location

Airport:

Trip Planner

Search our weather history database for the weather conditions in past years. The results will help you decide how hot, cold, wet, or windy it might be!

Date:

Astronomy

Apr. 15, 2013 Rise Set
Actual Time 6:26 AM CDT 7:49 PM CDT
Civil Twilight 5:57 AM CDT 8:19 PM CDT
Nautical Twilight 5:22 AM CDT 8:54 PM CDT
Astronomical Twilight 4:45 AM CDT 9:31 PM CDT
Moon 9:50 AM CDT (4/15) 12:05 AM CDT (4/15)
Length of Visible Light 14h 21m
Length of Day
13h 22m
Waxing Crescent, 25% of the Moon is Illuminated
Apr 15
Waxing Crescent
Apr 18
First Quarter
Apr 25
Full
May 2
Last Quarter
May 9
New

Hourly Weather History & Observations

Time (CDT) Temp. Windchill Dew Point Humidity Pressure Visibility Wind Dir Wind Speed Gust Speed Precip Events Conditions
12:15 AM 48.7 °F - 43.2 °F 81% 29.63 in 10.0 mi WNW 9.2 mph - N/A   Clear
12:35 AM 47.5 °F - 41.7 °F 80% 29.63 in 10.0 mi WNW 6.9 mph - N/A   Clear
12:55 AM 47.5 °F - 42.1 °F 82% 29.65 in 10.0 mi West 5.8 mph - N/A   Clear
1:15 AM 47.3 °F - 42.1 °F 82% 29.67 in 10.0 mi West 6.9 mph - N/A   Scattered Clouds
1:35 AM 47.5 °F - 41.9 °F 81% 29.68 in 10.0 mi West 4.6 mph - N/A   Mostly Cloudy
1:55 AM 47.5 °F - 41.0 °F 78% 29.69 in 10.0 mi WSW 5.8 mph - N/A   Overcast
2:15 AM 47.5 °F - 40.1 °F 76% 29.71 in 10.0 mi WSW 4.6 mph - N/A   Overcast
2:35 AM 47.5 °F - 40.1 °F 76% 29.70 in 10.0 mi WSW 4.6 mph - N/A   Mostly Cloudy
2:55 AM 45.0 °F 43.5 °F 38.8 °F 79% 29.71 in 10.0 mi South 3.5 mph - N/A   Scattered Clouds
3:15 AM 44.2 °F 41.8 °F 38.8 °F 81% 29.72 in 10.0 mi South 4.6 mph - N/A   Clear
3:35 AM 41.7 °F 39.8 °F 37.8 °F 86% 29.71 in 10.0 mi South 3.5 mph - N/A   Clear
3:55 AM 40.8 °F 37.8 °F 37.0 °F 86% 29.71 in 10.0 mi South 4.6 mph - N/A   Clear
4:15 AM 40.6 °F 38.6 °F 37.4 °F 88% 29.71 in 10.0 mi South 3.5 mph - N/A   Clear
4:35 AM 40.1 °F 36.9 °F 37.0 °F 89% 29.73 in 10.0 mi SSW 4.6 mph - N/A   Clear
4:55 AM 40.1 °F 36.9 °F 36.1 °F 86% 29.72 in 10.0 mi South 4.6 mph - N/A   Clear
5:15 AM 39.2 °F 35.0 °F 35.2 °F 86% 29.71 in 10.0 mi SSW 5.8 mph - N/A   Clear
5:35 AM 39.7 °F 34.9 °F 35.2 °F 84% 29.72 in 10.0 mi South 6.9 mph - N/A   Clear
5:55 AM 39.0 °F 34.0 °F 34.5 °F 84% 29.72 in 10.0 mi South 6.9 mph - N/A   Clear
6:15 AM 40.1 °F 34.1 °F 35.6 °F 84% 29.73 in 10.0 mi SSW 9.2 mph - N/A   Clear
6:35 AM 40.1 °F 34.1 °F 34.0 °F 79% 29.74 in 10.0 mi South 9.2 mph - N/A   Clear
6:55 AM 40.6 °F 34.8 °F 33.8 °F 77% 29.74 in 10.0 mi SW 9.2 mph - N/A   Clear
7:15 AM 42.4 °F 37.5 °F 34.3 °F 73% 29.75 in 10.0 mi SW 8.1 mph - N/A   Clear
7:35 AM 42.8 °F 38.0 °F 34.9 °F 74% 29.77 in 10.0 mi SW 8.1 mph - N/A   Clear
7:55 AM 43.5 °F 37.9 °F 34.9 °F 72% 29.79 in 10.0 mi West 10.4 mph 17.3 mph N/A   Clear
8:15 AM 42.4 °F 36.1 °F 32.0 °F 67% 29.80 in 10.0 mi West 11.5 mph - N/A   Clear
8:35 AM 41.4 °F 35.2 °F 30.2 °F 65% 29.81 in 10.0 mi West 10.4 mph 17.3 mph N/A   Clear
8:55 AM 42.4 °F 35.3 °F 28.9 °F 59% 29.81 in 10.0 mi West 13.8 mph - N/A   Clear
9:15 AM 45.0 °F 38.5 °F 31.1 °F 58% 29.81 in 10.0 mi West 13.8 mph 19.6 mph N/A   Clear
9:35 AM 45.0 °F 38.5 °F 31.8 °F 60% 29.82 in 10.0 mi West 13.8 mph 20.7 mph N/A   Clear
9:55 AM 45.0 °F 37.9 °F 30.6 °F 57% 29.82 in 10.0 mi West 16.1 mph 19.6 mph N/A   Clear
10:15 AM 47.5 °F - 32.9 °F 57% 29.81 in 10.0 mi West 11.5 mph 19.6 mph N/A   Clear
10:35 AM 47.5 °F - 32.9 °F 57% 29.81 in 10.0 mi WSW 11.5 mph - N/A   Clear
10:55 AM 47.5 °F - 32.2 °F 55% 29.82 in 10.0 mi West 15.0 mph 19.6 mph N/A   Clear
11:15 AM 47.5 °F - 32.0 °F 55% 29.85 in 10.0 mi WNW 18.4 mph 24.2 mph N/A   Clear
11:35 AM 47.5 °F - 31.6 °F 54% 29.88 in 10.0 mi West 16.1 mph 24.2 mph N/A   Clear
11:55 AM 47.5 °F - 29.7 °F 50% 29.88 in 10.0 mi West 17.3 mph 21.9 mph N/A   Clear
12:15 PM 41.4 °F 33.3 °F 25.2 °F 53% 29.90 in 10.0 mi West 16.1 mph 21.9 mph N/A   Clear
12:35 PM 40.1 °F 32.4 °F 27.1 °F 60% 29.89 in 10.0 mi WNW 13.8 mph 20.7 mph N/A   Clear
12:55 PM 37.9 °F 30.0 °F 27.7 °F 67% 29.88 in 10.0 mi WNW 12.7 mph - N/A Rain Light Rain
1:15 PM 37.4 °F 28.2 °F 28.4 °F 70% 29.90 in 10.0 mi WNW 16.1 mph - N/A   Drizzle
1:35 PM 37.4 °F 28.9 °F 29.8 °F 74% 29.91 in 7.0 mi WNW 13.8 mph 17.3 mph N/A Rain Rain
1:55 PM 37.4 °F 29.3 °F 31.1 °F 78% 29.93 in 10.0 mi WNW 12.7 mph - 0.01 in Rain Rain
2:15 PM 35.6 °F 27.1 °F 30.2 °F 81% 29.94 in 7.0 mi West 12.7 mph 18.4 mph 0.01 in Rain Light Rain
2:55 PM 34.9 °F 29.9 °F 31.1 °F 86% 29.93 in 10.0 mi West 5.8 mph - 0.03 in Rain Rain
3:15 PM 37.4 °F 30.8 °F 33.1 °F 84% 29.91 in 10.0 mi WNW 9.2 mph - N/A Rain Light Rain
3:35 PM 37.4 °F 32.1 °F 32.0 °F 81% 29.91 in 10.0 mi West 6.9 mph - N/A Rain Light Rain
3:55 PM 37.4 °F 32.1 °F 31.5 °F 79% 29.92 in 10.0 mi WNW 6.9 mph - N/A   Clear
4:15 PM 38.7 °F 33.6 °F 31.8 °F 76% 29.92 in 10.0 mi West 6.9 mph - N/A   Clear
4:35 PM 38.7 °F 32.9 °F 31.6 °F 76% 29.92 in 10.0 mi WNW 8.1 mph - N/A   Clear
4:55 PM 39.2 °F 32.0 °F 30.6 °F 71% 29.92 in 10.0 mi WNW 11.5 mph - N/A   Clear
5:15 PM 38.7 °F 31.8 °F 30.4 °F 72% 29.92 in 10.0 mi WNW 10.4 mph - N/A   Clear
5:35 PM 39.6 °F 33.5 °F 31.5 °F 73% 29.93 in 10.0 mi NW 9.2 mph - N/A   Clear
5:55 PM 40.1 °F 35.3 °F 31.5 °F 71% 29.93 in 10.0 mi WNW 6.9 mph - N/A   Clear
6:15 PM 40.1 °F 34.7 °F 31.1 °F 70% 29.93 in 10.0 mi WNW 8.1 mph - N/A   Scattered Clouds
6:35 PM 40.1 °F 34.1 °F 31.8 °F 72% 29.92 in 10.0 mi WNW 9.2 mph - N/A   Mostly Cloudy
6:55 PM 40.1 °F 35.3 °F 31.6 °F 72% 29.93 in 10.0 mi NW 6.9 mph - N/A   Mostly Cloudy
7:15 PM 40.1 °F 38.0 °F 32.0 °F 73% 29.93 in 10.0 mi West 3.5 mph - N/A   Mostly Cloudy
7:35 PM 40.1 °F 38.0 °F 32.2 °F 73% 29.94 in 10.0 mi West 3.5 mph - N/A   Mostly Cloudy
7:55 PM 40.1 °F 38.0 °F 32.4 °F 74% 29.95 in 10.0 mi West 3.5 mph - N/A   Mostly Cloudy
8:15 PM 39.2 °F 35.9 °F 32.2 °F 76% 29.96 in 10.0 mi West 4.6 mph - N/A   Scattered Clouds
8:35 PM 39.6 °F 35.4 °F 32.0 °F 74% 29.97 in 10.0 mi West 5.8 mph - N/A   Scattered Clouds
8:55 PM 39.9 °F 35.8 °F 32.4 °F 74% 29.99 in 10.0 mi WNW 5.8 mph - N/A   Clear
9:15 PM 38.7 °F 33.6 °F 31.8 °F 76% 29.99 in 10.0 mi NW 6.9 mph - N/A   Clear
9:35 PM 39.0 °F 32.8 °F 31.8 °F 75% 30.01 in 10.0 mi NW 9.2 mph - N/A   Clear
9:55 PM 38.7 °F 32.4 °F 30.9 °F 74% 30.01 in 10.0 mi WNW 9.2 mph - N/A   Clear
10:15 PM 38.7 °F 32.9 °F 31.1 °F 74% 30.03 in 10.0 mi WNW 8.1 mph - N/A   Clear
10:35 PM 38.7 °F 33.6 °F 31.5 °F 75% 30.04 in 10.0 mi WNW 6.9 mph - N/A   Clear
10:55 PM 37.4 °F 32.1 °F 30.7 °F 77% 30.04 in 10.0 mi WNW 6.9 mph - N/A   Clear
11:15 PM 37.4 °F 31.4 °F 30.6 °F 76% 30.05 in 10.0 mi NW 8.1 mph - N/A   Clear
11:35 PM 37.4 °F 30.8 °F 29.5 °F 73% 30.06 in 10.0 mi NW 9.2 mph - N/A   Clear
11:55 PM 35.4 °F 27.8 °F 26.8 °F 71% 30.05 in 10.0 mi NNW 10.4 mph - N/A   Clear